Hourly Data Report for October 04, 2016

CORAL HARBOUR A
NUNAVUT

64°11'36.000" N
83°21'34.000" W
62.20 m
2301002
71915
YZS

Download Data

Hourly Data (October 2016)
Hourly Data Report for October 4, 2016
TIME
LST
Temp Definition
°C
Dew Point Definition
°C
Rel Hum Definition
%
Precip. Amount Definition
mm

Wind Dir Definition
10's deg

Wind Spd Definition
km/h
Visibility Definition
km
Stn Press Definition
kPa
Hmdx Definition


Wind Chill Definition


Weather Definition


00:00 0.9 0.8 99   23 22 1.2 98.33     Fog
01:00 0.6 0.5 99   23 19 0.8 98.32     Drizzle,Fog
02:00 0.4 0.3 99   24 18 0.4 98.30     Drizzle,Fog
03:00 0.4 0.3 99   24 20 0.2 98.28     Drizzle,Fog
04:00
05:00 -0.1 -0.2 99   26 18 1.2 98.32   -5 Freezing Drizzle,Fog
06:00 -0.2 -0.6 97   29 15 16.1 98.37   -5 LegendNANA
07:00 -0.2 -0.8 96   30 4 24.1 98.39   -1 Mostly Cloudy
08:00 0.3 0.0 98   27 25 24.1 98.45     LegendNANA
09:00 1.1 -0.8 87   31 39 24.1 98.53     LegendNANA
10:00 1.0 -1.2 85   32 37 24.1 98.62     Mostly Cloudy
11:00 0.9 -1.8 82   32 41 24.1 98.73     LegendNANA
12:00 1.1 -2.0 80   31 37 24.1 98.88     LegendNANA
13:00 1.3 -2.1 78   31 48 24.1 98.96     Mostly Cloudy
14:00 0.8 -2.6 78   32 54 24.1 99.10     LegendNANA
15:00 0.5 -2.9 78   31 49 24.1 99.22     LegendNANA
16:00 -0.1 -3.7 77   32 53 24.1 99.35   -8 Mainly Clear
17:00 -1.4 -4.3 81   31 49 24.1 99.53   -10 LegendNANA
18:00 -2.2 -5.0 81   32 47 24.1 99.66   -11 LegendNANA
19:00 -2.8 -6.3 77   31 54 24.1 99.77   -12 Mainly Clear
20:00 -3.0 -6.5 77   31 55 24.1 99.85   -13 LegendNANA
21:00 -3.5 -7.3 75   31 57 24.1 99.97   -13 LegendNANA
22:00 -3.9 -7.5 76   32 46 24.1 100.07   -13 Mainly Clear
23:00 -3.8 -7.3 77   32 53 24.1 100.12   -14 LegendNANA

Notes on Data Quality.

Legend

  • E = Estimated
  • M = Missing
  • NA = Not Available*
  • [empty] = Indicates an unobserved value
Date modified: